CAPE
0 0 0 0 0 0 0 0 0 0 0 0 0 0 0 0 1 509 691 536 261 545 419 858 1546 1623 1565 1727 1722 1930 1723 1709 1302 725 401 154 128 54 5 3 3 4 4 2 4 3 2 2 3
0 0 0 0 0 0 0 0 0 0 0 0 0 0 0 0 55 504 873 795 346 432 421 521 1196 1166 1926 1640 1405 1556 1483 1222 538 243 138 52 6 7 8 6 5 5 4 6 5 4 0 0 0
0 0 0 0 0 0 0 0 0 0 0 0 0 0 0 0 73 140 415 782 557 270 382 585 1358 1507 1971 1543 1441 1677 1308 801 287 135 24 6 8 10 10 6 6 6 4 8 4 4 2 1 14
0 0 0 0 0 0 0 0 0 0 0 0 0 0 0 0 0 110 243 731 689 226 389 1065 1374 1563 1950 1630 1596 1570 1209 718 81 70 5 8 10 12 11 7 9 7 6 7 5 6 13 14 3
0 0 0 0 0 0 0 0 0 0 0 0 0 0 0 0 0 0 67 284 951 376 398 1021 1480 1618 1824 1577 1723 1569 1157 370 110 23 7 8 14 14 9 6 9 7 12 10 9 17 9 17 0
0 0 0 0 0 0 0 0 0 0 0 0 0 0 0 0 0 0 0 160 744 919 507 1009 1168 1506 1608 1660 1773 1481 1028 525 62 32 9 9 12 8 4 5 9 11 16 10 9 28 27 8 0
0 0 0 0 0 0 0 0 0 0 0 0 0 0 0 0 0 0 0 271 451 893 588 973 931 1326 1302 1267 1221 1127 930 540 39 102 29 18 14 6 2 8 10 17 14 10 10 20 25 5 0
0 0 0 0 0 0 0 0 0 0 0 0 0 0 0 0 0 0 0 262 515 792 550 901 572 1302 1119 943 913 736 485 185 93 30 12 8 7 8 11 15 22 26 15 20 18 14 15 1 0
0 0 0 0 0 0 0 0 0 0 0 0 0 0 0 0 0 0 0 10 555 833 559 428 337 1212 886 791 560 282 107 37 11 5 0 0 0 0 0 0 21 8 25 29 19 12 13 0 0
0 0 0 0 0 0 0 0 0 0 0 0 0 0 0 0 0 0 0 0 186 546 368 161 250 1130 773 720 197 38 11 0 0 0 0 0 0 0 0 0 15 21 22 27 28 2 1 0 0
0 0 0 0 0 0 0 0 0 0 0 0 0 0 0 0 0 0 0 0 14 441 415 260 596 972 712 520 89 7 0 0 0 0 0 0 0 0 0 0 1 0 3 2 8 0 0 0 0
0 0 0 0 0 0 0 0 0 0 0 0 0 0 0 0 0 0 0 15 17 473 541 386 630 712 595 231 59 2 0 0 0 0 0 0 0 0 0 0 0 0 0 0 0 0 0 0 0
0 0 0 0 0 0 0 0 0 0 0 0 0 0 0 0 0 0 0 0 45 325 710 510 490 547 438 170 55 0 0 0 0 0 0 0 0 0 0 0 0 0 0 0 0 0 0 0 0
0 0 0 0 0 0 0 0 0 0 0 0 0 0 0 0 0 0 0 1 25 61 576 522 392 556 284 111 7 0 0 0 0 0 0 0 0 0 0 0 0 0 0 0 0 0 0 0 0
0 0 0 0 0 0 0 0 0 0 0 0 0 0 0 0 0 5 23 42 56 57 511 539 360 470 90 66 3 0 0 0 0 0 0 0 0 0 0 0 0 0 0 0 0 0 0 0 0
0 0 0 0 0 0 0 0 0 0 0 0 0 0 0 0 0 27 57 112 114 159 347 439 215 138 85 52 0 0 0 0 0 0 0 0 0 0 0 0 0 0 0 0 0 0 0 0 0
0 0 0 0 0 0 0 0 0 0 0 0 0 0 0 0 0 49 67 91 170 338 855 273 52 0 0 5 0 0 0 0 0 0 0 0 0 0 0 0 0 0 0 0 0 0 0 0 0
0 0 0 0 0 0 0 0 0 0 0 0 0 0 0 0 0 5 81 59 491 1049 837 14 0 0 0 0 2 0 0 0 0 0 0 0 0 0 0 0 0 0 0 0 0 0 0 0 0
0 0 0 0 0 0 0 0 0 0 0 0 0 0 0 0 0 2 51 180 380 229 36 0 0 0 0 0 0 0 0 0 0 0 0 0 0 0 0 0 0 0 0 0 0 0 0 0 0
0 0 0 0 0 0 0 0 0 0 0 0 0 0 0 0 0 26 79 805 239 4 1 0 0 0 0 0 0 0 0 0 0 0 0 0 0 0 0 0 0 0 0 0 0 0 0 0 0
0 0 0 0 0 0 0 0 0 0 0 0 0 0 0 0 0 0 75 690 267 19 0 1 0 0 0 0 0 0 0 0 0 0 0 0 0 0 0 0 0 0 0 0 0 0 0 0 0
0 0 0 0 0 0 0 0 0 0 0 0 0 0 0 0 0 2 0 623 255 91 1 2 2 0 0 0 0 0 0 0 0 0 0 0 0 0 0 0 0 0 0 0 0 0 0 0 0
0 0 0 0 0 0 0 0 0 0 0 0 0 0 0 0 0 151 0 4 548 144 3 1 1 0 0 0 0 0 0 0 0 0 0 0 0 0 0 0 0 0 0 0 0 0 0 0 0
0 0 0 0 0 0 0 0 0 0 0 0 0 0 0 0 0 0 23 0 324 207 4 1 3 3 4 2 0 0 0 0 0 0 0 0 0 0 0 0 0 0 0 0 0 0 0 0 0
0 0 0 1 1 1 0 0 0 0 0 0 0 0 0 0 0 0 0 7 1 487 107 2 4 4 2 0 0 0 0 0 0 0 0 0 0 0 0 0 0 0 0 0 0 0 0 0 0
0 0 0 8 10 0 0 0 2 0 0 0 0 0 0 0 0 0 0 0 46 449 181 15 2 4 3 1 1 0 0 0 0 0 0 0 0 0 0 0 0 0 0 0 0 0 0 0 0
0 0 0 0 0 0 0 0 23 0 0 0 0 0 0 0 0 0 0 0 0 158 144 37 3 2 0 0 1 0 0 0 0 0 0 0 0 0 0 0 0 0 0 0 0 0 0 0 0
0 0 1 3 14 0 0 0 26 0 0 0 0 0 0 0 0 0 0 0 0 0 108 15 0 0 0 1 1 2 0 0 0 0 0 0 0 0 0 0 0 0 0 0 0 0 0 0 0
1 1 1 1 0 0 0 0 18 0 0 0 0 0 0 0 0 0 0 0 0 0 105 12 0 0 1 0 0 1 0 0 0 0 0 0 0 0 0 0 0 0 0 0 0 0 0 0 0
0 0 0 0 0 0 0 0 0 0 0 0 0 0 0 0 0 0 0 0 0 0 6 18 18 0 0 1 0 0 0 0 0 0 0 0 0 0 0 0 0 0 0 0 0 0 0 0 0
CIN
0 0 0 0 0 0 0 0 0 0 0 0 0 0 0 0 -3 -32 -52 -65 -124 -234 -305 -167 -64 -28 -15 -3 -5 -1 0 0 0 -41 -119 -254 -287 -365 0 0 0 0 0 0 0 0 0 0 0
0 0 0 0 0 0 0 0 0 0 0 0 0 0 0 0 -33 -120 -16 -70 -117 -175 -257 -201 -68 -69 0 -2 -7 -4 -3 -1 -53 -158 -242 -341 0 0 0 0 0 0 0 0 0 0 0 0 0
0 0 0 0 0 0 0 0 0 0 0 0 0 0 0 0 -92 -93 -26 -35 -91 -166 -231 -162 -34 -6 0 -1 -4 0 -1 -6 -117 -213 -362 0 0 0 0 0 0 0 0 0 0 0 0 0 0
0 0 0 0 0 0 0 0 0 0 0 0 0 0 0 0 0 -64 -106 -65 -64 -128 -200 -81 -28 -2 0 -1 -2 0 0 -5 -249 -268 -1 0 0 0 0 0 0 0 0 0 0 0 0 0 0
0 0 0 0 0 0 0 0 0 0 0 0 0 0 0 0 0 0 -133 -113 -43 -39 -111 -94 -11 -2 0 -3 -2 0 0 -51 -182 -320 0 0 0 0 0 0 0 0 0 0 0 0 0 0 0
0 0 0 0 0 0 0 0 0 0 0 0 0 0 0 0 0 0 0 -132 -62 -31 -31 -76 -35 -6 0 -3 -1 0 0 -13 -209 -276 0 0 0 0 0 0 0 0 0 0 0 0 0 0 0
0 0 0 0 0 0 0 0 0 0 0 0 0 0 0 0 0 0 0 -84 -68 -56 -35 -55 -49 -15 -1 -5 -5 0 0 -1 -209 -146 -288 0 0 0 0 0 0 0 0 0 0 0 0 0 0
0 0 0 0 0 0 0 0 0 0 0 0 0 0 0 0 0 0 0 -42 -51 -58 -63 -38 -79 -15 -1 -6 -3 -4 -6 -32 -104 -235 -3 -5 -3 0 0 0 0 0 0 0 0 0 0 0 0
0 0 0 0 0 0 0 0 0 0 0 0 0 0 0 0 0 0 0 -100 -15 -39 -64 -38 -102 -18 -2 -4 -9 -37 -69 -152 -183 -9 0 0 0 0 0 -1 -3 0 0 0 0 0 0 0 0
0 0 0 0 0 0 0 0 0 0 0 0 0 0 0 0 0 0 0 0 -51 -37 -69 -33 -91 -22 -7 -1 -61 -143 -234 0 0 0 0 0 0 0 0 0 -8 -1 -1 -1 0 0 0 0 0
0 0 0 0 0 0 0 0 0 0 0 0 0 0 0 0 0 0 0 0 -174 -36 -73 -46 -27 -28 -12 -1 -96 -262 0 0 0 0 0 0 0 0 0 0 -1 -2 -7 -5 -4 0 0 0 0
0 0 0 0 0 0 0 0 0 0 0 0 0 0 0 0 0 0 0 -103 -153 -26 -41 -49 -19 -25 -28 -32 -92 -246 0 0 0 0 0 0 0 0 0 0 0 0 0 0 0 0 0 0 0
0 0 0 0 0 0 0 0 0 0 0 0 0 0 0 0 0 0 0 0 -114 -39 -21 -34 -32 -16 -30 -61 -79 0 0 0 0 0 0 0 0 0 0 0 0 0 0 0 0 0 0 0 0
0 0 0 0 0 0 0 0 0 0 0 0 0 0 0 0 0 0 0 -165 -186 -128 -27 -49 -35 -19 -27 -63 -120 0 0 0 0 0 0 0 0 0 0 0 0 0 0 0 0 0 0 0 0
0 0 0 0 0 0 0 0 0 0 0 0 0 0 0 0 0 -238 -215 -200 -171 -155 -43 -52 -61 -6 -33 -39 -101 0 0 0 0 0 0 0 0 0 0 0 0 0 0 0 0 0 0 0 0
0 0 0 0 0 0 0 0 0 0 0 0 0 0 0 0 0 -149 -169 -137 -149 -96 -73 -116 -61 -36 -43 -25 -108 0 0 0 0 0 0 0 0 0 0 0 0 0 0 0 0 0 0 0 0
0 0 0 0 0 0 0 0 0 0 0 0 0 0 0 0 0 -97 -123 -136 -107 -34 -34 -113 -110 0 0 0 0 0 0 0 0 0 0 0 0 0 0 0 0 0 0 0 0 0 0 0 0
0 0 0 0 0 0 0 0 0 0 0 0 0 0 0 0 0 -21 -72 -96 -18 -30 -70 -52 0 0 0 0 0 0 0 0 0 0 0 0 0 0 0 0 0 0 0 0 0 0 0 0 0
0 0 0 0 0 0 0 0 0 0 0 0 0 0 0 0 0 -56 -77 -34 -182 -251 -295 0 0 0 0 0 0 0 0 0 0 0 0 0 0 0 0 0 0 0 0 0 0 0 0 0 0
0 0 0 0 0 0 0 0 0 0 0 0 0 0 0 0 0 -126 -101 -69 -197 -232 0 0 0 0 0 0 0 0 0 0 0 0 0 0 0 0 0 0 0 0 0 0 0 0 0 0 0
0 0 0 0 0 0 0 0 0 0 0 0 0 0 0 0 0 0 -131 -66 -143 -132 0 0 0 0 0 0 0 0 0 0 0 0 0 0 0 0 0 0 0 0 0 0 0 0 0 0 0
0 0 0 0 0 0 0 0 0 0 0 0 0 0 0 0 0 -103 0 -66 -122 -165 0 0 0 0 0 0 0 0 0 0 0 0 0 0 0 0 0 0 0 0 0 0 0 0 0 0 0
0 0 0 0 0 0 0 0 0 0 0 0 0 0 0 0 0 -72 0 -186 -50 -101 -52 0 0 0 0 0 0 0 0 0 0 0 0 0 0 0 0 0 0 0 0 0 0 0 0 0 0
0 0 0 0 0 0 0 0 0 0 0 0 0 0 0 0 0 0 -195 0 -49 -81 -42 0 0 0 0 0 0 0 0 0 0 0 0 0 0 0 0 0 0 0 0 0 0 0 0 0 0
0 0 0 -2 0 -2 0 0 0 0 0 0 0 0 0 0 0 0 0 -117 -13 -34 -63 0 0 0 0 0 0 0 0 0 0 0 0 0 0 0 0 0 0 0 0 0 0 0 0 0 0
0 0 -1 -5 -7 0 0 0 -40 0 0 0 0 0 0 0 0 0 0 0 -109 -47 -69 -52 -21 0 -5 0 -1 0 0 0 0 0 0 0 0 0 0 0 0 0 0 0 0 0 0 0 0
0 -2 0 0 0 0 0 0 -32 0 0 0 0 0 0 0 0 0 0 0 0 -105 -120 -81 -29 -15 0 0 0 0 0 0 0 0 0 0 0 0 0 0 0 0 0 0 0 0 0 0 0
0 0 -15 -1 -6 0 0 0 -18 0 0 0 0 0 0 0 0 0 0 0 0 0 -87 -158 -30 -11 0 0 0 0 0 0 0 0 0 0 0 0 0 0 0 0 0 0 0 0 0 0 0
-18 -15 -10 -10 0 0 0 0 -69 0 0 0 0 0 0 0 0 0 0 0 0 0 -28 -51 0 0 0 0 0 0 0 0 0 0 0 0 0 0 0 0 0 0 0 0 0 0 0 0 0
0 0 0 0 0 0 0 0 0 0 0 0 0 0 0 0 0 0 0 0 0 0 -27 -25 -17 -21 -1 -1 0 0 0 0 0 0 0 0 0 0 0 0 0 0 0 0 0 0 0 0 0
Wind_Speed
15 10 2 2 2 3 7 8 11 9 5 6 9 5 7 7 6 2 1 8 6 15 15 13 16 16 16 14 15 17 16 15 17 15 14 13 13 13 13 13 13 13 13 13 14 14 15 15 15
9 13 2 4 2 5 6 11 9 6 2 10 7 7 7 7 7 7 7 7 9 13 15 13 15 17 17 14 15 16 17 15 13 13 13 13 13 13 12 13 13 14 14 14 14 15 15 14 14
12 7 2 3 5 6 6 8 9 10 13 9 6 6 3 4 9 4 9 6 9 10 14 13 15 15 17 16 14 16 15 17 15 14 14 13 13 13 13 13 13 14 14 15 15 15 15 16 16
5 2 4 3 9 10 7 8 10 10 8 9 7 4 4 4 4 7 9 13 2 6 14 14 17 16 16 18 17 18 18 17 16 15 14 14 13 13 13 14 14 14 14 15 16 16 16 17 15
3 3 3 5 9 10 7 8 8 7 7 8 10 8 7 10 9 10 7 8 10 4 13 17 19 16 16 15 18 18 18 19 16 16 15 15 14 13 14 14 15 15 15 16 16 16 17 16 13
3 1 4 6 9 3 2 1 2 6 8 9 8 10 8 5 10 9 7 6 9 8 11 16 19 16 18 17 18 18 18 18 18 16 16 15 14 14 14 15 15 16 16 16 16 15 17 15 12
2 3 6 11 7 9 5 7 4 7 8 9 8 9 6 5 8 7 8 6 8 8 6 14 14 13 17 18 19 18 18 17 18 16 15 14 14 14 15 15 16 16 17 16 17 15 16 15 11
3 1 6 6 6 6 5 4 4 8 7 8 8 4 5 9 4 6 4 4 7 8 7 15 14 11 12 11 18 17 17 15 15 15 14 13 13 11 14 13 14 16 17 16 16 16 16 14 10
1 3 5 7 7 6 9 8 7 7 9 10 9 10 10 12 12 4 4 2 5 7 8 12 15 13 11 12 12 15 15 14 13 12 14 12 5 7 8 8 12 17 15 15 17 16 15 11 7
3 3 5 5 6 8 11 11 12 12 14 15 12 11 10 11 10 7 7 6 6 7 8 6 14 14 13 11 13 12 11 8 8 8 9 7 8 7 7 9 12 15 13 14 17 17 15 7 3
4 5 7 10 8 8 13 13 13 15 18 15 13 9 10 9 8 8 8 8 7 7 7 9 13 14 14 11 10 7 7 7 6 10 8 7 6 7 6 4 4 5 7 7 9 8 5 6 4
4 9 11 10 10 10 13 15 18 15 24 16 17 15 11 10 8 8 8 7 6 7 9 13 11 12 13 10 10 10 9 8 7 9 11 5 6 7 7 4 5 5 4 7 5 4 5 7 7
12 11 13 10 13 12 15 16 15 22 18 17 16 15 11 10 11 9 9 8 7 8 10 15 10 13 12 15 11 11 11 8 7 9 9 6 7 5 8 6 6 5 5 6 6 5 5 6 6
8 11 15 13 12 9 14 13 8 16 15 16 14 10 10 10 9 8 9 9 9 8 9 12 11 12 13 14 15 12 11 10 8 8 5 8 6 5 7 7 6 5 6 6 5 5 5 5 6
8 12 14 13 10 3 5 9 12 17 13 12 11 11 9 9 10 10 9 9 9 9 9 10 10 12 14 14 14 13 12 9 6 6 7 7 7 6 6 5 5 5 5 7 6 5 4 5 5
5 7 5 4 8 5 6 11 8 9 13 16 16 14 11 11 11 8 9 8 9 9 9 7 12 10 10 13 12 12 14 9 6 6 5 7 7 7 6 5 5 5 4 5 5 5 5 5 5
8 5 8 9 7 3 7 12 10 12 14 13 9 8 9 9 7 9 9 9 10 8 7 11 10 11 12 19 8 12 17 11 8 6 5 7 7 7 6 5 4 6 5 4 5 4 6 5 5
4 8 10 10 5 7 8 18 15 12 11 10 7 8 7 6 8 7 8 7 6 5 5 13 10 10 14 14 11 10 10 7 7 6 6 7 6 8 6 5 6 5 5 5 4 5 4 5 5
8 9 12 12 11 2 7 15 17 12 8 6 8 6 8 6 7 6 6 5 8 5 9 11 13 11 8 12 10 6 7 4 4 4 8 8 7 8 7 5 7 5 5 6 7 4 6 4 6
8 11 15 11 2 4 11 20 18 11 1 3 5 7 7 8 7 3 5 8 6 5 6 10 12 12 10 11 8 1 3 5 4 2 5 7 8 7 7 7 7 7 5 6 6 6 4 3 6
10 11 13 10 8 9 8 11 5 6 4 4 7 6 5 6 6 8 6 10 9 9 9 9 12 13 15 14 11 9 5 2 2 2 3 5 8 7 8 8 6 7 5 5 6 6 8 8 3
13 4 5 6 5 3 7 6 9 9 8 5 10 8 7 7 5 3 7 10 11 10 8 10 10 15 16 18 15 18 12 10 3 4 3 4 7 8 8 10 8 7 6 7 6 5 5 9 7
5 2 6 7 6 6 4 3 7 6 7 10 8 8 7 7 7 5 4 4 13 11 10 9 12 11 17 17 16 14 10 9 10 5 7 6 6 8 8 9 9 9 7 7 8 7 7 5 4
8 7 13 9 3 3 10 6 7 5 8 7 9 7 9 11 8 9 2 4 3 12 11 11 13 14 14 14 15 15 17 13 8 15 11 9 7 8 9 10 10 9 8 10 8 7 8 7 5
4 6 4 1 2 6 5 2 10 2 8 11 10 8 9 9 8 8 9 2 3 12 14 12 13 12 15 14 13 15 17 12 10 10 11 12 9 8 10 11 11 9 9 10 9 9 7 7 8
7 5 3 4 1 3 6 5 5 9 10 10 9 9 10 9 8 9 8 7 3 9 13 13 13 13 13 15 15 12 8 8 6 8 4 7 8 9 7 6 7 7 7 8 7 6 5 7 7
3 4 2 4 5 1 5 5 3 9 9 8 12 12 10 10 12 13 15 10 7 4 12 15 13 13 12 14 11 10 10 9 7 9 9 7 5 7 8 6 7 7 8 8 8 6 7 9 7
6 5 1 2 3 5 4 4 6 7 7 11 11 9 9 9 13 15 15 17 10 7 10 12 15 14 12 12 11 10 11 11 9 8 8 9 9 11 11 9 8 8 7 9 9 8 7 11 7
3 3 5 4 3 3 2 6 5 9 11 11 9 8 9 11 13 14 16 17 15 10 5 9 11 12 11 12 11 11 11 11 9 9 10 11 12 13 13 13 13 12 11 9 9 10 10 11 9
9 5 7 3 7 4 6 9 6 10 19 13 10 10 8 9 12 13 15 17 18 17 1 6 7 9 10 9 10 9 11 12 11 10 9 12 13 13 14 13 14 13 11 10 12 12 9 12 11
Wind_Direction
307 304 286 304 241 223 261 250 235 264 290 55 34 3 323 302 317 353 5 27 5 131 150 167 167 163 165 167 150 142 140 141 137 129 136 143 137 133 128 127 125 124 120 120 119 118 114 111 110
297 296 264 270 244 248 250 233 248 261 36 58 16 336 310 304 341 88 29 23 328 133 147 171 175 170 171 172 151 146 144 137 134 143 146 144 141 137 133 130 128 124 121 123 119 118 114 113 111
259 267 266 207 214 236 272 38 6 1 4 15 353 333 9 15 42 123 354 52 335 135 148 170 175 173 168 166 157 145 143 133 148 152 150 148 143 140 137 133 128 125 127 124 122 117 116 119 110
314 217 271 268 267 285 324 9 18 347 337 340 316 272 277 324 27 63 17 345 345 158 151 155 172 178 174 174 158 150 144 140 160 155 152 148 147 143 138 133 130 130 131 126 124 121 122 116 115
231 281 269 220 249 261 292 32 358 320 297 295 298 285 276 319 337 50 43 350 322 222 154 151 165 182 180 170 154 155 151 146 161 158 153 151 148 143 139 137 136 136 133 129 125 127 121 114 117
285 263 275 247 255 341 14 204 273 283 276 280 290 285 269 231 39 20 360 12 311 313 142 156 166 182 185 166 155 159 152 155 164 159 156 152 147 145 144 143 141 140 133 133 128 123 119 117 114
273 298 260 279 307 311 309 63 336 300 308 295 306 291 282 323 92 52 8 360 316 294 161 155 167 171 187 167 159 159 155 156 166 156 155 146 145 147 148 146 145 142 133 133 128 125 118 117 115
292 304 275 263 257 285 17 37 309 283 265 294 311 273 271 251 157 53 27 306 309 289 286 159 168 168 186 170 158 158 151 161 155 153 139 130 134 149 148 148 149 140 134 134 130 126 122 121 120
353 268 259 297 330 329 340 318 301 295 284 269 259 262 272 287 305 348 299 285 271 279 274 161 171 167 182 167 159 147 141 149 146 130 128 130 136 145 143 151 149 143 134 136 130 125 122 125 137
241 265 264 7 331 309 307 303 300 299 287 275 273 261 250 254 263 264 260 230 243 271 263 203 175 170 173 171 156 152 145 146 146 137 145 160 151 145 147 137 133 135 138 141 135 131 134 134 133
236 242 322 316 311 318 297 286 287 286 276 270 272 261 260 256 263 239 244 211 209 229 241 238 186 170 170 173 159 157 148 154 158 153 168 188 150 125 124 124 128 123 132 140 122 144 158 149 177
266 252 269 291 303 304 285 290 281 273 269 280 278 274 273 268 264 261 264 240 197 222 232 235 204 181 173 171 162 160 157 162 168 165 191 178 141 139 137 143 147 143 147 138 148 174 188 159 181
268 269 267 287 298 279 276 269 268 272 269 267 260 261 254 249 244 241 249 256 225 222 222 228 219 188 169 180 166 161 162 166 164 163 195 141 143 144 148 161 153 164 153 154 174 185 139 141 133
300 306 295 286 265 260 270 279 274 273 264 264 267 263 238 246 247 239 232 233 233 232 215 225 214 183 178 189 172 168 159 163 155 163 183 137 148 158 162 154 158 168 151 160 169 148 143 137 117
306 297 283 254 241 257 10 282 223 251 263 251 251 253 251 228 233 233 225 219 218 229 214 208 201 192 184 195 189 170 153 148 137 143 152 148 146 154 140 141 143 157 151 150 138 137 122 115 116
230 238 293 134 174 174 110 275 291 317 322 289 274 263 246 235 226 208 228 213 220 226 225 180 176 206 223 203 202 162 140 140 133 137 146 153 147 143 135 138 142 147 138 138 136 134 120 121 120
200 262 267 303 172 186 187 278 277 285 289 293 290 284 255 235 224 200 207 214 213 203 192 140 141 108 63 347 233 180 136 135 138 135 147 156 146 143 134 138 142 131 118 113 124 115 122 127 122
288 276 295 293 294 225 256 276 296 300 287 283 307 313 275 247 230 221 201 208 196 169 140 136 133 111 76 45 328 7 92 112 129 142 151 157 148 146 137 134 130 122 124 126 119 136 132 129 131
308 301 284 283 281 284 267 277 285 291 272 334 323 325 349 249 233 202 177 172 81 70 120 148 139 134 108 87 2 15 352 63 98 135 158 147 143 146 141 135 136 144 147 157 155 146 138 118 113
284 282 276 280 221 269 294 289 284 264 37 300 305 59 21 5 1 186 155 104 114 139 136 145 131 147 129 127 124 174 41 323 98 119 137 143 144 150 143 141 146 148 141 149 148 138 116 103 125
260 259 270 279 341 290 270 283 237 147 191 262 53 76 78 61 17 338 181 136 146 161 169 156 160 146 144 152 139 142 125 309 53 102 140 164 148 155 147 143 145 149 138 154 154 147 132 149 136
274 313 332 316 328 263 32 287 305 165 188 101 59 49 36 32 4 9 323 142 170 176 165 155 165 155 146 153 157 169 182 149 209 177 164 178 159 163 157 152 154 158 148 154 154 152 139 152 163
264 63 284 280 273 309 274 155 260 162 121 98 81 57 21 16 10 20 349 306 168 163 166 160 159 169 157 160 177 172 175 185 163 178 171 189 166 163 158 160 158 157 155 157 155 151 152 143 142
310 302 267 228 208 270 213 170 282 170 134 112 95 55 23 7 6 356 94 336 153 160 160 168 172 176 171 176 176 177 179 188 196 169 176 182 174 173 165 166 164 160 155 161 158 149 154 154 149
235 266 302 0 188 229 88 73 243 88 89 101 92 54 32 358 357 4 355 41 296 155 168 180 186 190 188 192 191 195 194 182 183 188 178 179 169 179 179 168 166 168 158 153 149 148 151 155 159
257 272 213 280 209 278 174 238 284 102 94 99 81 65 31 359 354 356 1 348 304 170 171 184 190 199 193 193 199 194 190 191 198 184 170 188 180 162 158 155 155 145 139 140 132 136 128 124 124
350 216 303 293 275 294 236 246 359 124 113 96 63 44 23 17 6 358 349 329 333 181 189 180 192 198 195 203 192 196 185 189 184 172 164 161 146 142 141 145 138 131 127 124 119 122 118 115 114
232 1 299 254 235 234 242 248 194 122 102 70 51 32 23 13 13 1 352 345 325 294 188 196 181 195 201 202 196 189 188 192 172 174 154 151 151 148 149 140 124 115 106 118 119 121 120 118 116
213 256 210 257 246 262 314 282 88 131 81 75 53 28 21 18 11 358 350 342 336 300 130 195 192 189 199 200 196 183 183 192 176 179 168 160 153 160 151 144 139 134 132 129 126 127 129 124 124
278 311 302 254 274 248 238 256 275 156 82 69 42 35 21 24 10 359 349 342 340 336 15 166 195 196 203 197 196 189 180 189 188 175 159 154 156 154 150 147 140 133 130 133 135 138 134 132 130